When you browse on this site, cookies collect data to enhance your experience and personalize the content and advertising you see.
Visit our Privacy Policy to learn more. By continuing to use the site, you agree to this use of cookies and data.
  • En España
  • Lista de países
  • Para 7 días
  • Temperatura del agua
  • El tiempo en el mapa
  • Informadores
  • user-avatar
    Iniciar sesión

    Tiempo cada hora Santiago del Estero

    Hoy, 3 Junio, Miércoles

    Tiempo Temperatura Precipitaciones Viento Presión Humedad
    00:00 +10°C° 0 mm 3 mps 743 mmHg 59%
    01:00 +9°C° 0 mm 3 mps 743 mmHg 61%
    02:00 +9°C° 0 mm 3 mps 743 mmHg 63%
    03:00 +9°C° 0 mm 3 mps 743 mmHg 64%
    04:00 +8°C° 0 mm 3 mps 742 mmHg 66%
    05:00 +8°C° 0 mm 3 mps 742 mmHg 67%
    06:00 +8°C° 0 mm 3 mps 742 mmHg 66%
    07:00 +8°C° 0 mm 4 mps 743 mmHg 65%
    08:00 +8°C° 0 mm 4 mps 743 mmHg 64%
    09:00 +12°C° 0 mm 5 mps 743 mmHg 58%
    10:00 +14°C° 0 mm 5 mps 743 mmHg 52%
    11:00 +17°C° 0 mm 6 mps 743 mmHg 46%
    12:00 +19°C° 0 mm 6 mps 743 mmHg 44%
    13:00 +20°C° 0 mm 5 mps 743 mmHg 42%
    14:00 +21°C° 0 mm 5 mps 742 mmHg 40%
    15:00 +21°C° 0 mm 4 mps 743 mmHg 43%
    16:00 +20°C° 0 mm 3 mps 743 mmHg 47%
    17:00 +19°C° 0 mm 2 mps 743 mmHg 50%
    18:00 +19°C° 0 mm 3 mps 744 mmHg 49%
    19:00 +18°C° 0 mm 3 mps 745 mmHg 49%
    20:00 +17°C° 0 mm 3 mps 746 mmHg 49%
    21:00 +17°C° 0 mm 3 mps 747 mmHg 49%
    22:00 +17°C° 0 mm 3 mps 748 mmHg 49%
    23:00 +15°C° 0 mm 4 mps 749 mmHg 49%

    Mañana, 4 Junio, Jueves

    Tiempo Temperatura Precipitaciones Viento Presión Humedad
    00:00 +15°C° 0 mm 4 mps 749 mmHg 51%
    01:00 +14°C° 0 mm 3 mps 749 mmHg 54%
    02:00 +14°C° 0 mm 3 mps 749 mmHg 57%
    03:00 +13°C° 0 mm 3 mps 749 mmHg 62%
    04:00 +13°C° 0 mm 3 mps 749 mmHg 66%
    05:00 +12°C° 0 mm 3 mps 749 mmHg 71%
    06:00 +12°C° 0 mm 3 mps 750 mmHg 73%
    07:00 +12°C° 0 mm 3 mps 750 mmHg 75%
    08:00 +12°C° 0 mm 4 mps 750 mmHg 77%
    09:00 +12°C° 0 mm 4 mps 750 mmHg 77%
    10:00 +12°C° 0 mm 4 mps 750 mmHg 77%
    11:00 +12°C° 0 mm 4 mps 749 mmHg 78%
    12:00 +12°C° 0 mm 4 mps 749 mmHg 77%
    13:00 +12°C° 0 mm 4 mps 748 mmHg 77%
    14:00 +12°C° 0 mm 4 mps 748 mmHg 77%
    15:00 +12°C° 0 mm 4 mps 748 mmHg 76%
    16:00 +12°C° 0 mm 3 mps 748 mmHg 76%
    17:00 +12°C° 0 mm 3 mps 748 mmHg 75%
    18:00 +12°C° 0.3 mm 4 mps 748 mmHg 78%
    19:00 +12°C° 0.3 mm 4 mps 748 mmHg 81%
    20:00 +11°C° 0.3 mm 4 mps 748 mmHg 84%
    21:00 +11°C° 0.4 mm 4 mps 748 mmHg 86%
    22:00 +11°C° 0.4 mm 4 mps 748 mmHg 87%
    23:00 +10°C° 0.4 mm 4 mps 748 mmHg 88%

    Pasado mañana, 5 Junio, Viernes

    Tiempo Temperatura Precipitaciones Viento Presión Humedad
    00:00 +10°C° 0 mm 3 mps 747 mmHg 89%
    01:00 +10°C° 0 mm 3 mps 747 mmHg 89%
    02:00 +9°C° 0 mm 3 mps 747 mmHg 90%
    03:00 +9°C° 0 mm 2 mps 747 mmHg 90%
    04:00 +9°C° 0 mm 2 mps 746 mmHg 91%
    05:00 +8°C° 0 mm 2 mps 746 mmHg 91%
    06:00 +8°C° 0 mm 2 mps 746 mmHg 89%
    07:00 +9°C° 0 mm 2 mps 746 mmHg 87%
    08:00 +9°C° 0 mm 2 mps 747 mmHg 85%
    09:00 +11°C° 0 mm 3 mps 747 mmHg 75%
    10:00 +13°C° 0 mm 3 mps 747 mmHg 65%
    11:00 +16°C° 0 mm 3 mps 747 mmHg 55%
    12:00 +18°C° 0 mm 3 mps 746 mmHg 49%
    13:00 +19°C° 0 mm 3 mps 745 mmHg 44%
    14:00 +20°C° 0 mm 3 mps 745 mmHg 38%
    15:00 +20°C° 0 mm 2 mps 744 mmHg 41%
    16:00 +20°C° 0 mm 1 mps 744 mmHg 44%
    17:00 +19°C° 0 mm 1 mps 744 mmHg 47%
    18:00 +16°C° 0 mm 1 mps 744 mmHg 52%
    19:00 +15°C° 0 mm 1 mps 744 mmHg 56%
    20:00 +13°C° 0 mm 2 mps 745 mmHg 60%
    21:00 +13°C° 0 mm 2 mps 745 mmHg 62%
    22:00 +13°C° 0 mm 2 mps 745 mmHg 63%
    23:00 +12°C° 0 mm 2 mps 745 mmHg 64%

    6 Junio, Sábado

    Tiempo Temperatura Precipitaciones Viento Presión Humedad
    00:00 +12°C° 0 mm 2 mps 744 mmHg 67%
    01:00 +10°C° 0 mm 2 mps 744 mmHg 71%
    02:00 +10°C° 0 mm 2 mps 743 mmHg 74%
    03:00 +10°C° 0 mm 1 mps 743 mmHg 76%
    04:00 +10°C° 0 mm 1 mps 743 mmHg 77%
    05:00 +9°C° 0 mm 1 mps 743 mmHg 79%
    06:00 +9°C° 0 mm 2 mps 744 mmHg 76%
    07:00 +10°C° 0 mm 2 mps 744 mmHg 73%
    08:00 +10°C° 0 mm 2 mps 744 mmHg 70%
    09:00 +13°C° 0 mm 3 mps 744 mmHg 63%
    10:00 +15°C° 0 mm 4 mps 744 mmHg 56%
    11:00 +19°C° 0 mm 4 mps 744 mmHg 49%
    12:00 +21°C° 0 mm 4 mps 743 mmHg 43%
    13:00 +22°C° 0 mm 5 mps 742 mmHg 38%
    14:00 +25°C° 0 mm 5 mps 741 mmHg 33%
    15:00 +23°C° 0 mm 4 mps 741 mmHg 34%
    16:00 +22°C° 0 mm 3 mps 741 mmHg 36%
    17:00 +21°C° 0 mm 2 mps 740 mmHg 37%
    18:00 +20°C° 0 mm 3 mps 741 mmHg 40%
    19:00 +18°C° 0 mm 3 mps 741 mmHg 43%
    20:00 +17°C° 0 mm 3 mps 742 mmHg 45%
    21:00 +16°C° 0 mm 3 mps 742 mmHg 48%
    22:00 +14°C° 0 mm 3 mps 742 mmHg 50%
    23:00 +13°C° 0 mm 3 mps 742 mmHg 53%

    7 Junio, Domingo

    Tiempo Temperatura Precipitaciones Viento Presión Humedad
    00:00 +13°C° 0 mm 3 mps 743 mmHg 55%
    01:00 +12°C° 0 mm 3 mps 743 mmHg 57%
    02:00 +12°C° 0 mm 3 mps 743 mmHg 58%
    03:00 +12°C° 0 mm 3 mps 743 mmHg 60%
    04:00 +11°C° 0 mm 3 mps 744 mmHg 62%
    05:00 +11°C° 0 mm 3 mps 744 mmHg 64%
    06:00 +11°C° 0 mm 3 mps 744 mmHg 64%
    07:00 +12°C° 0 mm 2 mps 745 mmHg 64%
    08:00 +12°C° 0 mm 2 mps 746 mmHg 64%
    09:00 +15°C° 0 mm 2 mps 746 mmHg 59%
    10:00 +17°C° 0 mm 3 mps 746 mmHg 53%
    11:00 +20°C° 0 mm 3 mps 746 mmHg 48%
    12:00 +21°C° 0 mm 3 mps 745 mmHg 47%
    13:00 +22°C° 0 mm 4 mps 744 mmHg 45%
    14:00 +23°C° 0 mm 4 mps 744 mmHg 44%
    15:00 +24°C° 0 mm 3 mps 743 mmHg 47%
    16:00 +22°C° 0 mm 3 mps 743 mmHg 50%
    17:00 +23°C° 0 mm 2 mps 743 mmHg 53%
    18:00 +21°C° 0 mm 2 mps 744 mmHg 55%
    19:00 +20°C° 0 mm 2 mps 744 mmHg 57%
    20:00 +19°C° 0 mm 2 mps 744 mmHg 58%
    21:00 +18°C° 0 mm 3 mps 744 mmHg 57%
    22:00 +18°C° 0 mm 3 mps 744 mmHg 55%
    23:00 +17°C° 0 mm 3 mps 744 mmHg 54%

    8 Junio, Lunes

    Tiempo Temperatura Precipitaciones Viento Presión Humedad
    00:00 +16°C° 0 mm 3 mps 744 mmHg 57%
    01:00 +14°C° 0 mm 3 mps 744 mmHg 60%
    02:00 +14°C° 0 mm 2 mps 743 mmHg 64%
    03:00 +14°C° 0 mm 2 mps 743 mmHg 66%
    04:00 +13°C° 0 mm 2 mps 743 mmHg 69%
    05:00 +13°C° 0 mm 1 mps 742 mmHg 72%
    06:00 +14°C° 0 mm 1 mps 743 mmHg 72%
    07:00 +14°C° 0 mm 2 mps 743 mmHg 72%
    08:00 +15°C° 0 mm 2 mps 743 mmHg 72%
    09:00 +17°C° 0 mm 2 mps 743 mmHg 67%
    10:00 +19°C° 0 mm 3 mps 743 mmHg 62%
    11:00 +22°C° 0 mm 4 mps 743 mmHg 57%
    12:00 +23°C° 0 mm 4 mps 742 mmHg 55%
    13:00 +25°C° 0 mm 4 mps 741 mmHg 54%
    14:00 +26°C° 0 mm 4 mps 740 mmHg 52%
    15:00 +25°C° 0 mm 4 mps 739 mmHg 55%
    16:00 +25°C° 0 mm 3 mps 739 mmHg 58%
    17:00 +24°C° 0 mm 2 mps 739 mmHg 61%
    18:00 +22°C° 0 mm 3 mps 739 mmHg 62%
    19:00 +22°C° 0 mm 3 mps 739 mmHg 64%
    20:00 +21°C° 0 mm 3 mps 739 mmHg 66%
    21:00 +20°C° 0 mm 3 mps 739 mmHg 71%
    22:00 +19°C° 0 mm 3 mps 739 mmHg 76%
    23:00 +18°C° 0 mm 3 mps 739 mmHg 82%
    Mostrar más